Regional Weather Roundup
Issued by NWS

Home | Current Version | Previous Version | Graphics & Text | Print | Product List | Glossary On
Versions: 1 2 3 4 5 6 7 8 9 10 11 12 13 14 15 16 17 18 19 20 21 22 23 24 25 26 27 28 29 30 31 32 33 34 35 36 37 38 39 40 41 42 43 44 45 46 47 48 49 50
000
ASUS43 KBIS 060610
RWRND

NORTH DAKOTA REGIONAL WEATHER ROUNDUP
NATIONAL WEATHER SERVICE BISMARCK ND
1200 AM CST SAT FEB 06 2016

NOTE: "FAIR" INDICATES FEW OR NO CLOUDS BELOW 12,000 FEET WITH NO
SIGNIFICANT WEATHER AND/OR OBSTRUCTIONS TO VISIBILITY.


NDZ001>003-009>011-017-060700-
NORTHWEST NORTH DAKOTA

CITY           SKY/WX    TMP DP  RH WIND       PRES   REMARKS
WILLISTON      CLOUDY    27  22  81 S7        29.90F WCI  19
6HR MIN TEMP:  24; 6HR MAX TEMP:  35;

MINOT          CLOUDY    34  23  64 SW10      29.90F
MINOT AFB      CLOUDY    28  26  91 CALM      29.89F
$$

NDZ018>021-031>035-040>046-060700-
SOUTHWEST NORTH DAKOTA

CITY           SKY/WX    TMP DP  RH WIND       PRES   REMARKS
BISMARCK       CLEAR     24  19  81 E3        30.01F
6HR MIN TEMP:  24; 6HR MAX TEMP:  37;

DICKINSON      CLOUDY    31  21  66 SW15      29.95F
GARRISON         N/A     23  20  88 S5        29.95F WCI  17
6HR MIN TEMP:  22; 6HR MAX TEMP:  33;

HETTINGER ARPT CLOUDY    28  20  71 SW7       30.04F
$$

NDZ004>008-012>016-024-026-027-054-060700-
NORTHEAST NORTH DAKOTA

CITY           SKY/WX    TMP DP  RH WIND       PRES   REMARKS
GRAND FORKS    CLOUDY    22  17  81 S9        30.03F WCI  12
GRND FRKS AFB  CLOUDY    22  18  83 SW8       30.02F WCI  13
DEVILS LAKE    CLOUDY    25  20  81 S7        29.97F WCI  17
$$

NDZ022-023-025-028>030-036>039-047>053-060700-
SOUTHEAST NORTH DAKOTA

CITY           SKY/WX    TMP DP  RH WIND       PRES   REMARKS
FARGO          CLOUDY    21  18  88 S8        30.09F WCI  11
6HR MIN TEMP:  18; 6HR MAX TEMP:  26;

JAMESTOWN      CLOUDY    23  18  81 SW7       30.01F WCI  15
$$




USA.gov is the U.S. government's official web portal to all federal, state and local government web resources and services.